Weather History for Knoxville, IA

Change the Weather History Date:

Monday, February 24, 2014

  Actual Average Record
Temperature  
Mean Temperature 20 °F -  
Max Temperature 24 °F 38 °F 69 °F (2002)
Min Temperature 14 °F 20 °F -8 °F (1993)
Degree Days  
Heating Degree Days 46    
Moisture  
Dew Point 10 °F    
Average Humidity 69    
Maximum Humidity 86    
Minimum Humidity 43    
Precipitation  
Precipitation 0.01 in - - ()
Sea Level Pressure  
Sea Level Pressure 30.32 in    
Wind  
Wind Speed 6 mph (North)    
Max Wind Speed 13 mph    
Max Gust Speed 17 mph    
Visibility 7 miles    
Events Snow    
Averages and records for this station are not official NWS values.
T = Trace of Precipitation, MM = Missing Value Source: NWS Daily Summary

Daily Weather History Graph

Daily Weather History Graph

Search for Another Location

Airport:

Trip Planner

Search our weather history database for the weather conditions in past years. The results will help you decide how hot, cold, wet, or windy it might be!

Date:

Astronomy

Feb. 24, 2014 Rise Set
Actual Time 6:54 AM CST 5:57 PM CST
Civil Twilight 6:26 AM CST 6:25 PM CST
Nautical Twilight 5:54 AM CST 6:57 PM CST
Astronomical Twilight 5:22 AM CST 7:29 PM CST
Moon 2:55 AM CST (2/24) 12:57 PM CST (2/24)
Length of Visible Light 11h 58m
Length of Day
11h 02m
Waning Crescent, 28% of the Moon is Illuminated
Feb 24
Waning Crescent
Mar 1
New
Mar 8
First Quarter
Mar 16
Full
Mar 23
Last Quarter

Hourly Weather History & Observations

Time (CST) Temp. Windchill Dew Point Humidity Pressure Visibility Wind Dir Wind Speed Gust Speed Precip Events Conditions
12:15 AM 17.6 °F 8.2 °F 12.2 °F 79% 30.34 in 10.0 mi NW 6.9 mph - N/A   Clear
12:35 AM 17.6 °F 8.2 °F 12.2 °F 79% 30.34 in 10.0 mi WNW 6.9 mph - N/A   Clear
12:55 AM 17.6 °F 9.3 °F 12.2 °F 79% 30.34 in 10.0 mi WNW 5.8 mph - N/A   Scattered Clouds
1:15 AM 17.6 °F 9.3 °F 12.2 °F 79% 30.34 in 10.0 mi WNW 5.8 mph - N/A   Scattered Clouds
1:35 AM 19.4 °F 11.5 °F 12.2 °F 74% 30.34 in 10.0 mi WNW 5.8 mph - N/A   Scattered Clouds
1:55 AM 19.4 °F 11.5 °F 12.2 °F 74% 30.33 in 10.0 mi NW 5.8 mph - N/A   Scattered Clouds
2:15 AM 19.4 °F 11.5 °F 12.2 °F 74% 30.32 in 10.0 mi NW 5.8 mph - N/A   Partly Cloudy
2:35 AM 19.4 °F 10.4 °F 12.2 °F 74% 30.33 in 10.0 mi NW 6.9 mph - N/A   Clear
2:55 AM 19.4 °F 9.5 °F 12.2 °F 74% 30.33 in 10.0 mi NW 8.1 mph - N/A   Mostly Cloudy
3:15 AM 19.4 °F 8.6 °F 12.2 °F 74% 30.33 in 10.0 mi NW 9.2 mph - N/A   Overcast
3:35 AM 21.2 °F 8.9 °F 10.4 °F 63% 30.33 in 10.0 mi NNW 12.7 mph - N/A   Overcast
3:55 AM 21.2 °F 9.5 °F 10.4 °F 63% 30.33 in 10.0 mi NNW 11.5 mph 17.3 mph N/A   Overcast
4:15 AM 21.2 °F 9.5 °F 10.4 °F 63% 30.31 in 10.0 mi North 11.5 mph - N/A   Overcast
4:35 AM 19.4 °F 7.2 °F 8.6 °F 63% 30.31 in 10.0 mi NNW 11.5 mph - N/A   Overcast
4:55 AM 19.4 °F 6.6 °F 8.6 °F 63% 30.32 in 10.0 mi NNW 12.7 mph - N/A   Overcast
5:15 AM 19.4 °F 9.5 °F 8.6 °F 63% 30.33 in 10.0 mi NNW 8.1 mph - N/A   Overcast
5:35 AM 19.4 °F 11.5 °F 8.6 °F 63% 30.33 in 10.0 mi NNW 5.8 mph - N/A   Overcast
5:55 AM 19.4 °F 12.8 °F 8.6 °F 63% 30.34 in 10.0 mi NNW 4.6 mph - N/A   Overcast
6:15 AM 17.6 °F 10.7 °F 8.6 °F 68% 30.34 in 10.0 mi NNW 4.6 mph - N/A   Overcast
6:35 AM 17.6 °F 7.3 °F 8.6 °F 68% 30.34 in 10.0 mi NNW 8.1 mph - N/A   Overcast
6:55 AM 17.6 °F 8.2 °F 8.6 °F 68% 30.34 in 10.0 mi North 6.9 mph - N/A   Overcast
7:15 AM 17.6 °F 10.7 °F 6.8 °F 63% 30.34 in 10.0 mi NNW 4.6 mph - N/A   Overcast
7:35 AM 17.6 °F 9.3 °F 8.6 °F 68% 30.35 in 10.0 mi North 5.8 mph - N/A   Overcast
7:55 AM 17.6 °F 8.2 °F 8.6 °F 68% 30.36 in 10.0 mi North 6.9 mph - N/A   Overcast
8:15 AM 17.6 °F 8.2 °F 6.8 °F 63% 30.37 in 10.0 mi NNW 6.9 mph - N/A   Overcast
8:35 AM 17.6 °F 7.3 °F 6.8 °F 63% 30.37 in 10.0 mi North 8.1 mph - N/A   Overcast
8:55 AM 17.6 °F 8.2 °F 6.8 °F 63% 30.38 in 10.0 mi North 6.9 mph - N/A   Overcast
9:15 AM 17.6 °F 9.3 °F 6.8 °F 63% 30.39 in 10.0 mi NNW 5.8 mph - N/A   Overcast
9:35 AM 19.4 °F 9.5 °F 6.8 °F 58% 30.38 in 10.0 mi North 8.1 mph - N/A   Overcast
9:55 AM 19.4 °F 9.5 °F 6.8 °F 58% 30.37 in 10.0 mi North 8.1 mph - N/A   Overcast
10:15 AM 19.4 °F 8.6 °F 8.6 °F 63% 30.36 in 10.0 mi North 9.2 mph - N/A   Overcast
10:35 AM 19.4 °F 11.5 °F 6.8 °F 58% 30.37 in 10.0 mi North 5.8 mph - N/A   Overcast
10:55 AM 19.4 °F - 6.8 °F 58% 30.37 in 10.0 mi Calm Calm - N/A   Overcast
11:15 AM 19.4 °F - 5.0 °F 54% 30.36 in 10.0 mi Calm Calm - N/A   Overcast
11:35 AM 21.2 °F 14.9 °F 5.0 °F 50% 30.36 in 10.0 mi NW 4.6 mph - N/A   Overcast
11:55 AM 21.2 °F - 5.0 °F 50% 30.36 in 10.0 mi Calm Calm - N/A   Overcast
12:15 PM 21.2 °F - 5.0 °F 50% 30.35 in 10.0 mi Calm Calm - N/A   Overcast
12:35 PM 23.0 °F 17.0 °F 6.8 °F 50% 30.34 in 10.0 mi North 4.6 mph - N/A   Overcast
12:50 PM 23.0 °F 17.0 °F 6.8 °F 50% 30.33 in 10.0 mi ENE 4.6 mph - N/A   Overcast
1:15 PM 23.0 °F 17.0 °F 5.0 °F 46% 30.32 in 10.0 mi Variable 4.6 mph - N/A   Scattered Clouds
1:35 PM 23.0 °F - 5.0 °F 46% 30.31 in 10.0 mi Calm Calm - N/A   Mostly Cloudy
1:55 PM 23.0 °F - 5.0 °F 46% 30.30 in 10.0 mi Calm Calm - N/A   Overcast
2:15 PM 23.0 °F - 5.0 °F 46% 30.30 in 10.0 mi Calm Calm - N/A   Mostly Cloudy
2:35 PM 24.8 °F 19.1 °F 5.0 °F 43% 30.29 in 10.0 mi East 4.6 mph - N/A   Mostly Cloudy
2:55 PM 23.0 °F - 5.0 °F 46% 30.29 in 10.0 mi Calm Calm - N/A   Overcast
3:15 PM 23.0 °F 15.8 °F 8.6 °F 54% 30.29 in 9.0 mi NNE 5.8 mph - N/A   Overcast
3:35 PM 23.0 °F 15.8 °F 12.2 °F 63% 30.28 in 2.5 mi NNE 5.8 mph - N/A Snow Light Snow
3:55 PM 21.2 °F 14.9 °F 15.8 °F 80% 30.28 in 1.5 mi NE 4.6 mph - N/A Snow Light Snow
4:15 PM 21.2 °F 16.4 °F 15.8 °F 80% 30.27 in 1.5 mi NNE 3.5 mph - N/A Snow Light Snow
4:35 PM 21.2 °F 16.4 °F 15.8 °F 80% 30.26 in 2.0 mi NE 3.5 mph - N/A Snow Light Snow
4:55 PM 21.2 °F 14.9 °F 15.8 °F 80% 30.26 in 2.5 mi NE 4.6 mph - N/A Snow Light Snow
5:15 PM 21.2 °F 13.6 °F 15.8 °F 80% 30.26 in 3.0 mi NNE 5.8 mph - N/A Snow Light Snow
5:35 PM 21.2 °F 13.6 °F 15.8 °F 80% 30.27 in 6.0 mi NNE 5.8 mph - N/A Snow Light Snow
5:55 PM 21.2 °F 14.9 °F 15.8 °F 80% 30.26 in 2.0 mi NNE 4.6 mph - N/A Snow Light Snow
6:15 PM 21.2 °F 16.4 °F 15.8 °F 80% 30.27 in 1.2 mi NE 3.5 mph - N/A Snow Light Snow
6:35 PM 19.4 °F 12.8 °F 15.8 °F 86% 30.27 in 1.5 mi NNE 4.6 mph - N/A Snow Light Snow
6:55 PM 19.4 °F 10.4 °F 15.8 °F 86% 30.27 in 2.0 mi NNE 6.9 mph - N/A Snow Light Snow
7:15 PM 19.4 °F 11.5 °F 15.8 °F 86% 30.27 in 2.0 mi NNE 5.8 mph - N/A Snow Light Snow
7:35 PM 19.4 °F 14.3 °F 15.8 °F 86% 30.26 in 2.0 mi ENE 3.5 mph - N/A Snow Light Snow
7:55 PM 19.4 °F 10.4 °F 15.8 °F 86% 30.26 in 2.0 mi NE 6.9 mph - N/A Snow Light Snow
8:15 PM 19.4 °F 10.4 °F 15.8 °F 86% 30.26 in 2.0 mi NNE 6.9 mph - N/A Snow Light Snow
8:35 PM 19.4 °F 11.5 °F 15.8 °F 86% 30.27 in 1.0 mi NNE 5.8 mph - N/A Snow Light Snow
8:55 PM 17.6 °F 8.2 °F 14.0 °F 86% 30.28 in 1.2 mi NNE 6.9 mph - N/A Snow Light Snow
9:15 PM 17.6 °F 7.3 °F 14.0 °F 86% 30.28 in 1.2 mi NNE 8.1 mph - N/A Snow Light Snow
9:35 PM 17.6 °F 6.4 °F 12.2 °F 79% 30.29 in 1.5 mi NNE 9.2 mph - N/A Snow Light Snow
9:55 PM 15.8 °F 4.2 °F 12.2 °F 86% 30.31 in 1.2 mi North 9.2 mph - 0.01 in Snow Light Snow
10:15 PM 15.8 °F 5.1 °F 12.2 °F 86% 30.31 in 1.5 mi North 8.1 mph 15.0 mph N/A Snow Light Snow
10:35 PM 15.8 °F 4.2 °F 12.2 °F 86% 30.32 in 0.8 mi North 9.2 mph - N/A Snow Light Snow
10:55 PM 15.8 °F 2.7 °F 12.2 °F 86% 30.32 in 1.2 mi North 11.5 mph - N/A Snow Light Snow
11:15 PM 15.8 °F 4.2 °F 10.4 °F 79% 30.31 in 3.0 mi North 9.2 mph - N/A Snow Light Snow
11:35 PM 15.8 °F 6.1 °F 10.4 °F 79% 30.31 in 4.0 mi NNE 6.9 mph - N/A Snow Light Snow
11:55 PM 14.0 °F 5.1 °F 10.4 °F 86% 30.31 in 6.0 mi NNE 5.8 mph - N/A Snow Light Snow